Location: Warner Observatory
(35.1353°N, 89.5455°W)
Time: 08:34:36
(UTC-06:00)

Envisat - Pass Details

Date: 26 January 2020
Orbit: 764 x 766 km, 98.1° (Epoch: 28 February)

Event Time Altitude Azimuth Distance (km) Brightness Sun altitude
Rises 06:17:25 0° 17° (NNE) 3,236 6.3 -9.3°
Reaches altitude 10° 06:19:46 10° 22° (NNE) 2,306 5.6 -8.9°
Maximum altitude 06:24:46 57° 100° (E) 900 3.8 -7.9°
Drops below altitude 10° 06:29:44 10° 179° (S) 2,291 5.7 -6.9°
Sets 06:32:04 0° 183° (S) 3,213 6.4 -6.5°
